Weather History for KSPG - April, 2013

Change the Weather History Date:

Sunday, April 7, 2013

  Actual Average (WUND) Record (WUND)
Temperature  
Mean Temperature 74 °F -  
Max Temperature 82 °F - - (-1)
Min Temperature 66 °F - - (-1)
Cooling Degree Days 9    
Growing Degree Days 24 (Base 50)    
Moisture  
Dew Point 60 °F    
Average Humidity 67    
Maximum Humidity 87    
Minimum Humidity 47    
Precipitation  
Precipitation 0.00 in - - ()
Sea Level Pressure  
Sea Level Pressure 30.09 in    
Wind  
Wind Speed 10 mph (NE)    
Max Wind Speed 15 mph    
Max Gust Speed -    
Visibility 10 miles    
Events      
Averages and records for this station are not official NWS values.
T = Trace of Precipitation, MM = Missing Value Source: NWS Daily Summary

Daily Weather History Graph

Daily Weather History Graph

Search for Another Location

Airport or City:

Trip Planner

Search our weather history database for the weather conditions in past years. The results will help you decide how hot, cold, wet, or windy it might be!

Date:

Astronomy

Apr. 07, 2013 Rise Set
Actual Time 7:13 AM EDT 7:51 PM EDT
Civil Twilight 6:50 AM EDT 8:15 PM EDT
Nautical Twilight 6:22 AM EDT 8:43 PM EDT
Astronomical Twilight 5:54 AM EDT 9:11 PM EDT
Moon 5:17 AM EDT (4/7) 5:32 PM EDT (4/7)
Length of Visible Light 13h 24m
Length of Day
12h 37m
Waning Crescent, 8% of the Moon is Illuminated
Apr 7
Waning Crescent
Apr 10
New
Apr 18
First Quarter
Apr 25
Full
May 2
Last Quarter

Hourly Weather History & Observations

Time (EDT) Temp. Heat Index Dew Point Humidity Pressure Visibility Wind Dir Wind Speed Gust Speed Precip Events Conditions
12:53 AM 69.1 °F - 60.1 °F 73% 30.11 in 10.0 mi East 13.8 mph - N/A   Clear
1:53 AM 68.0 °F - 60.1 °F 76% 30.09 in 10.0 mi ENE 15.0 mph - N/A   Clear
2:53 AM 66.9 °F - 60.1 °F 79% 30.07 in 10.0 mi ENE 10.4 mph - N/A   Clear
3:53 AM 66.0 °F - 60.1 °F 81% 30.06 in 10.0 mi East 15.0 mph - N/A   Clear
4:53 AM 66.0 °F - 61.0 °F 84% 30.06 in 10.0 mi East 10.4 mph - N/A   Clear
5:53 AM 66.0 °F - 62.1 °F 87% 30.08 in 10.0 mi NE 6.9 mph - N/A   Overcast
6:53 AM 66.0 °F - 61.0 °F 84% 30.10 in 10.0 mi ENE 8.1 mph - N/A   Overcast
7:53 AM 66.9 °F - 62.1 °F 84% 30.12 in 10.0 mi East 9.2 mph - N/A   Partly Cloudy
8:53 AM 68.0 °F - 62.1 °F 81% 30.14 in 10.0 mi NE 8.1 mph - N/A   Partly Cloudy
9:53 AM 68.0 °F - 61.0 °F 78% 30.14 in 10.0 mi East 9.2 mph - N/A   Clear
10:53 AM 72.0 °F - 62.1 °F 71% 30.16 in 10.0 mi East 3.5 mph - N/A   Clear
11:53 AM 75.0 °F - 63.0 °F 66% 30.15 in 10.0 mi East 6.9 mph - N/A   Clear
12:53 PM 75.9 °F - 61.0 °F 60% 30.14 in 10.0 mi NE 5.8 mph - N/A   Clear
1:53 PM 81.0 °F 81.6 °F 60.1 °F 49% 30.12 in 10.0 mi NNE 4.6 mph - N/A   Clear
2:53 PM 81.0 °F 81.3 °F 59.0 °F 47% 30.09 in 10.0 mi ENE 5.8 mph - N/A   Mostly Cloudy
3:53 PM 80.1 °F 80.6 °F 57.9 °F 47% 30.08 in 10.0 mi ENE 4.6 mph - N/A   Mostly Cloudy
4:53 PM 82.0 °F 82.7 °F 61.0 °F 49% 30.06 in 10.0 mi Calm Calm - N/A   Scattered Clouds
5:53 PM 79.0 °F - 57.0 °F 47% 30.05 in 10.0 mi NW 6.9 mph - N/A   Scattered Clouds
6:53 PM 78.1 °F - 57.9 °F 50% 30.05 in 10.0 mi NNW 9.2 mph - N/A   Partly Cloudy
7:53 PM 75.0 °F - 57.0 °F 53% 30.05 in 10.0 mi NNW 6.9 mph - N/A   Clear
8:53 PM 73.9 °F - 59.0 °F 59% 30.07 in 10.0 mi North 6.9 mph - N/A   Clear
9:53 PM 73.0 °F - 59.0 °F 61% 30.09 in 10.0 mi NNE 9.2 mph - N/A   Clear
10:53 PM 73.0 °F - 60.1 °F 64% 30.10 in 10.0 mi ENE 10.4 mph - N/A   Overcast
11:53 PM 73.0 °F - 62.1 °F 68% 30.10 in 10.0 mi SE 12.7 mph - N/A   Partly Cloudy